一网星座-0432星 (ONEWEB-0432 )

导读

ONEWEB-0432是英国OneWeb低轨宽带星座中的一颗通信卫星,于2021年12月27日发射入轨。该卫星属于OneWeb星座组网卫星,依托低轨星座优势,可提供广覆盖、低延迟的全球互联网接入服务,能为偏远地区、海上和空中等场景补充网络连接,同时低轨巨型星座也具备潜在的军事应用价值,是全球低轨卫星互联网建设的重要组成部分。

基本信息
目录编号:
50502
目录名称:
ONEWEB-0432
国际标识:
2021-132AK
轨道中心:
EARTH
卫星名称:
一网星座-0432星
卫星全名:
一网星座-0432星 (ONEWEB-0432 )
卫星状态:
在轨 (已飞行1630 天)
发射日期:
2021-12-27 UTC
国别 :
英国 (GB)
星等 :
--
轨道信息
数据来源 国际轨道数据 AOE轨道数据
星历时间 2026-06-14T05:02:15+0800
15小时前
查看轨道信息
2026-06-14T16:00:00+0800
4小时前
查看轨道信息
半长轴 7573.746km 7573.723km
偏心率 0.0002098 0.0002086
轨道倾角 87.917° 87.917°
近地点辐角 109.278° 108.921°
升交点赤经 336.092° 336.001°
平近点角 250.857° 255.900°
近地点 1194.02km 1194.006km
远地点 1197.198km 1197.166km
周期 109.327分钟 109.326分钟
每日圈数 13.171544 13.171605
详细信息
平衡模式:
三轴稳定
覆盖范围:
全球
运营商:
一网卫星公司
运营商所在国:
英国
制造商(研发单位):
一网卫星公司
制造商所在国:
英国
使用方式:
暂无
卫星简介
OneWeb卫星网络由648颗重约125公斤的微型卫星组成,运行在1200公里的轨道上。 每颗卫星都能够提供至少每秒8千兆位的吞吐量,以使用其高吞吐量的Ku频段有效载荷为家庭和移动平台提供互联网接入。该卫星仍在工作。
2D轨道图
3D轨道图
轨道高度分析图
轨道倾角分析图
轨道综合分析图
查看轨道综合分析图